This is the latest recevied weather packets stored in our database for station/object N0MPM-4. If no packets are shown the sender has not sent any weather packets the latest 10 day(s).
| Time | Temp. | Humidity | Pressure | Rain* | Wind** | Luminosity | Snow |
|---|---|---|---|---|---|---|---|
| 1787882876 | 19.44° C | 63% | 1017.3 hPa | 0 mm | - | - | - |
| 1787882637 | 19.44° C | 64% | 1017.1 hPa | 0 mm | - | - | - |
| 1787882576 | 19.44° C | 65% | 1017.2 hPa | 0 mm | - | - | - |
| 1787882276 | 19.44° C | 67% | 1017.1 hPa | 0 mm | - | - | - |
| 1787881976 | 20° C | 72% | 1017 hPa | 0 mm | - | - | - |
| 1787881917 | 20° C | 72% | 1017 hPa | 0 mm | - | - | - |
| 1787881676 | 20° C | 73% | 1017 hPa | 0 mm | - | - | - |
| 1787881557 | 20° C | 72% | 1017 hPa | 0 mm | - | - | - |
| 1787881376 | 20° C | 73% | 1017 hPa | 0 mm | - | - | - |
| 1787881197 | 20° C | 74% | 1016.9 hPa | 0 mm | - | - | - |
| 1787881076 | 20° C | 75% | 1016.8 hPa | 0 mm | - | - | - |
| 1787880837 | 20.56° C | 75% | 1016.7 hPa | 0 mm | - | - | - |
| 1787880776 | 20.56° C | 75% | 1016.7 hPa | 0 mm | - | - | - |
| 1787880476 | 20.56° C | 77% | 1016.7 hPa | 0 mm | - | - | - |
| 1787880176 | 21.11° C | 78% | 1016.6 hPa | 0 mm | - | - | - |
| 1787880117 | 21.11° C | 78% | 1016.6 hPa | 0 mm | - | - | - |
| 1787879876 | 21.11° C | 78% | 1016.6 hPa | 0 mm | - | - | - |
| 1787879757 | 21.11° C | 78% | 1016.6 hPa | 0 mm | - | - | - |
| 1787879576 | 21.67° C | 77% | 1016.6 hPa | 0 mm | - | - | - |
| 1787879398 | 21.67° C | 77% | 1016.4 hPa | 0 mm | - | - | - |
| 1787879276 | 21.67° C | 77% | 1016.4 hPa | 0 mm | - | - | - |
| 1787879037 | 22.22° C | 76% | 1016.4 hPa | 0 mm | - | - | - |
| 1787878976 | 22.22° C | 76% | 1016.4 hPa | 0 mm | - | - | - |
| 1787878676 | 22.78° C | 75% | 1016.4 hPa | 0 mm | - | - | - |
| 1787878376 | 23.33° C | 73% | 1016.3 hPa | 0 mm | - | - | - |
* Rain latest hour (hover to see other rain measurements)
** Current wind speed in m/s (hover to see current wind gust speed)